Dewpoint
16 19 17 16 16 16 18 20 19 21 22 23 24 25 25 26 26 26 28 27 29 31 35 34 34 38 46 51 52 58 61 67 68 67 66 65 62 59 58 59 59 59 61 60
16 17 20 17 14 13 12 15 17 20 20 21 21 22 25 26 27 27 28 28 30 31 32 35 36 38 53 54 56 62 63 65 67 67 66 63 60 59 58 58 59 60 59 60
17 15 18 18 14 12 12 13 16 17 18 19 20 20 23 24 25 26 25 27 29 30 30 32 35 47 55 57 60 61 63 66 66 65 63 62 58 59 58 58 58 60 60 59
14 17 13 15 16 14 12 13 13 15 16 16 19 18 23 24 23 22 24 26 29 30 32 33 37 54 56 58 60 61 64 66 65 63 61 58 56 55 56 56 59 61 60 59
3 13 15 12 14 15 13 12 11 12 13 17 17 19 20 21 18 19 22 25 28 30 31 33 34 54 56 58 60 62 65 65 63 61 59 60 58 57 57 55 60 60 62 61
6 3 8 14 12 13 14 12 11 12 12 14 17 18 18 19 19 19 23 25 27 29 30 31 51 54 56 58 60 63 63 63 61 61 62 58 57 58 58 56 60 59 62 63
14 8 6 5 11 12 13 15 12 11 10 12 15 16 18 21 19 21 24 26 27 28 30 50 52 53 55 57 60 62 62 61 61 60 60 61 59 58 58 58 58 58 61 61
26 23 7 7 9 13 13 16 12 9 9 12 13 14 17 20 20 24 21 25 26 34 45 49 51 53 55 58 60 59 61 61 60 59 59 60 60 59 59 59 59 59 59 61
23 21 19 7 10 12 12 11 15 12 11 10 12 15 20 20 21 23 21 26 34 39 46 49 51 53 55 57 58 59 60 59 59 58 59 59 60 60 60 60 59 60 60 59
21 20 20 24 9 12 13 13 12 14 11 11 12 12 13 22 23 24 22 28 40 45 47 49 51 54 55 57 58 59 58 58 58 57 59 58 57 59 59 58 59 59 58 58
20 23 20 24 22 7 13 12 12 15 12 12 13 13 22 23 21 23 27 27 43 46 47 49 51 53 54 55 56 57 57 56 55 58 58 59 59 59 59 58 59 59 57 55
26 27 23 23 25 5 12 12 14 14 14 14 13 13 24 26 24 26 28 34 44 45 47 48 50 52 53 54 55 56 55 53 55 55 59 59 60 60 59 58 58 58 56 57
34 30 24 22 24 26 15 14 16 19 20 16 13 15 24 22 25 24 34 41 44 45 46 47 49 51 52 53 54 53 52 52 53 53 58 59 60 61 60 58 57 57 58 55
35 32 26 21 29 34 26 13 14 17 16 17 17 19 23 23 26 30 39 43 43 44 45 47 48 50 51 53 52 50 49 51 51 52 58 60 61 60 59 58 59 58 54 53
37 30 29 24 31 37 36 31 11 13 17 16 18 19 19 26 28 36 41 42 42 42 44 47 48 49 51 52 50 47 47 49 51 53 59 60 60 59 58 58 58 57 57 56
36 32 29 26 25 31 34 30 25 11 16 17 19 19 28 32 35 37 39 40 40 42 43 45 47 48 50 49 47 46 47 48 50 57 58 58 58 59 59 58 58 58 57 58
25 29 31 23 21 32 29 27 24 13 16 19 18 22 30 27 29 35 37 39 40 41 42 45 46 48 49 48 46 47 47 48 49 56 56 56 55 57 58 59 58 59 57 57
22 25 33 29 32 23 23 25 24 15 18 20 18 27 27 28 31 36 40 42 42 41 42 45 46 49 50 47 46 47 47 47 48 54 54 53 53 53 56 58 58 58 58 57
21 23 29 29 29 28 30 36 32 25 30 34 32 31 32 30 40 43 43 42 43 46 45 46 48 50 50 47 46 46 46 46 47 50 52 51 54 55 55 56 58 58 58 59
20 26 31 31 27 29 37 38 38 34 32 37 37 37 37 33 31 43 44 43 44 46 47 46 48 51 50 48 46 46 46 45 47 49 50 51 56 57 58 59 59 60 60 61
26 31 29 29 29 33 38 40 38 33 38 39 39 39 40 39 41 43 43 43 44 45 47 47 49 51 51 49 47 46 45 44 46 49 50 52 58 58 60 61 61 61 61 61
31 31 29 30 28 28 39 39 37 41 41 38 39 39 39 40 41 42 43 43 44 44 46 47 49 52 51 49 47 45 46 44 45 48 50 54 58 56 59 61 61 61 61 60
31 35 32 34 32 38 43 37 39 39 39 37 37 39 40 41 42 43 44 44 44 44 45 46 49 53 51 49 47 46 48 45 44 48 53 55 55 58 59 59 61 60 60 60
36 38 35 37 37 39 42 38 37 38 39 39 37 38 39 40 42 43 45 46 45 45 44 47 49 52 51 49 47 47 47 44 44 49 54 56 55 58 58 57 58 58 59 58
35 36 36 36 37 38 40 40 38 37 39 38 39 39 39 39 40 42 44 47 48 46 46 46 48 51 52 49 48 47 45 44 45 49 53 55 54 57 57 55 53 54 53 54
36 34 35 34 37 37 36 38 37 36 37 38 38 39 40 39 39 42 43 45 49 50 48 45 47 51 51 49 47 46 45 44 48 49 52 54 54 56 55 55 52 48 48 46
Wind_Speed
28 25 37 56 40 40 37 43 43 39 36 36 33 37 41 31 30 30 27 22 26 27 21 15 14 19 14 7 3 9 12 16 21 17 17 14 14 11 10 11 12 10 8 7
26 42 53 27 40 42 42 40 42 37 33 33 31 35 36 32 31 27 27 25 24 24 24 21 16 16 10 9 6 8 12 15 17 15 15 14 13 14 14 12 13 11 8 9
32 48 29 37 40 37 43 43 37 40 32 34 31 36 35 31 32 30 24 24 24 25 26 28 21 9 13 12 11 10 11 14 15 14 13 10 14 11 12 9 7 10 7 4
30 33 40 39 43 41 40 36 35 35 32 30 28 37 34 26 29 27 25 28 24 26 29 30 25 19 16 14 12 12 13 17 14 16 13 12 11 7 8 12 7 8 8 3
44 30 33 41 47 37 46 31 33 35 33 30 32 26 36 22 24 21 22 23 21 21 19 19 13 22 18 18 15 15 16 15 13 14 14 11 10 11 7 3 10 4 6 2
36 33 35 37 36 40 32 35 35 34 29 30 37 31 42 29 24 25 26 24 19 21 20 16 23 22 20 18 18 17 17 15 15 9 14 14 10 5 5 5 6 4 3 1
29 32 36 37 35 37 39 30 31 29 31 41 25 31 36 26 26 28 23 19 14 11 16 27 25 21 20 20 19 18 18 17 14 11 12 7 8 3 3 2 3 2 4 5
18 19 34 37 41 33 40 36 27 36 26 33 32 35 33 26 29 21 10 10 7 12 20 22 20 21 21 21 21 20 18 17 15 13 12 10 9 7 4 2 6 6 4 5
12 18 28 36 36 37 33 43 37 31 29 28 24 27 41 32 24 16 8 12 10 14 18 18 20 20 22 21 21 21 19 17 15 13 11 10 8 9 8 5 3 6 6 8
8 23 26 30 35 42 39 30 40 31 34 30 30 26 15 18 25 16 12 15 19 19 19 20 20 22 21 21 20 19 18 17 15 14 12 11 8 6 7 4 9 6 4 9
16 17 33 27 30 38 36 37 41 27 31 28 24 21 10 13 8 15 16 19 24 21 21 22 22 22 21 21 20 18 17 16 15 14 11 15 10 7 8 5 9 8 2 6
19 9 27 29 33 33 39 34 31 27 34 29 23 26 9 11 9 16 20 25 23 22 23 22 23 22 22 20 20 17 17 16 14 13 16 14 10 9 7 7 9 9 7 5
8 9 15 28 25 26 35 38 34 30 20 28 29 24 8 11 17 17 23 25 23 24 24 24 23 22 21 20 18 17 16 16 14 13 17 16 11 8 7 8 7 9 10 7
3 9 21 20 11 21 16 39 42 35 35 28 30 6 13 17 14 15 22 23 23 24 23 23 22 21 20 20 18 17 15 15 14 12 19 15 11 9 10 10 5 5 8 7
3 10 22 26 14 18 28 32 41 38 34 33 29 13 22 19 16 20 22 22 24 24 23 22 20 20 20 19 18 16 15 15 13 13 17 13 13 11 12 10 6 1 5 6
9 5 24 21 15 19 30 33 27 39 35 36 35 19 16 23 18 18 19 23 22 23 22 21 20 21 20 18 18 16 15 15 12 21 16 14 15 14 14 11 8 5 4 9
17 10 12 15 9 11 22 29 28 36 32 37 26 15 30 18 15 21 20 21 19 21 21 21 20 19 18 18 17 16 15 15 13 20 14 13 13 17 15 13 12 9 7 6
18 14 6 3 11 8 12 16 27 33 31 30 12 19 24 23 20 22 21 17 7 21 20 20 19 19 19 18 17 15 16 15 14 19 18 14 14 12 16 15 14 13 9 7
14 11 6 2 7 21 14 15 15 15 9 26 24 25 21 18 27 20 17 15 13 12 19 20 19 20 19 18 19 16 16 15 16 15 17 15 17 15 10 12 14 10 10 9
12 8 6 1 4 7 11 23 36 21 16 21 18 19 14 7 16 10 14 14 13 14 4 21 21 21 20 19 20 17 17 16 16 15 17 16 22 17 11 11 10 10 8 9
3 3 6 5 2 9 25 37 29 3 5 11 17 16 16 15 11 6 8 9 10 11 7 22 22 21 20 19 20 17 17 16 15 16 16 16 22 19 15 11 11 10 11 11
5 6 1 4 4 6 24 18 12 11 5 13 15 13 13 10 10 9 8 8 8 9 9 21 21 21 21 21 20 18 18 16 15 16 16 20 21 17 14 15 10 14 11 14
7 6 6 7 3 8 18 12 18 17 17 16 15 14 12 11 11 9 7 6 6 6 8 12 21 23 21 21 20 18 18 16 16 17 16 21 16 18 17 11 14 14 12 13
8 16 6 2 6 13 15 18 17 20 20 20 13 13 13 11 10 9 9 5 5 6 8 12 22 24 22 22 21 17 19 17 17 18 17 21 17 19 17 12 10 15 16 14
4 7 11 5 11 11 12 21 20 11 14 15 15 12 9 10 10 11 10 11 8 4 6 12 16 23 23 22 21 19 21 19 17 18 17 17 14 17 16 14 10 12 8 6
5 6 4 1 8 7 10 14 15 11 9 8 9 11 9 9 10 12 12 13 13 13 7 9 11 23 24 23 21 21 21 20 18 19 18 17 16 14 16 12 8 14 13 19
Wind_Direction
225 217 222 221 220 238 236 239 248 254 253 248 256 260 265 275 275 259 250 255 268 264 284 245 249 269 255 128 162 167 164 146 155 163 171 181 189 177 221 196 196 195 195 225
226 219 226 232 227 234 243 253 253 260 260 258 265 262 264 258 256 255 266 247 252 260 275 283 241 261 139 143 139 128 144 148 159 158 169 179 182 183 207 200 197 189 196 226
224 234 228 234 234 234 235 237 246 256 266 270 272 271 268 267 271 273 267 275 273 276 273 274 274 211 141 139 144 156 162 162 155 154 163 177 182 186 192 187 156 189 194 221
245 240 239 228 237 230 239 234 243 249 253 259 259 269 256 259 265 260 258 257 251 245 247 246 244 140 142 138 144 156 156 150 159 149 178 164 167 188 186 207 136 128 175 181
242 241 234 238 237 229 242 243 244 244 250 257 254 260 265 274 272 276 270 261 255 255 255 259 230 136 140 136 141 147 144 154 163 161 149 158 187 193 167 142 116 117 73 19
252 249 254 244 241 245 238 242 247 254 253 248 244 245 267 260 270 277 270 267 259 238 243 237 122 131 132 136 138 143 151 164 144 168 151 174 207 65 112 142 124 117 118 271
248 244 250 249 250 232 239 230 235 238 237 242 245 240 254 269 268 269 276 267 260 248 228 116 127 135 138 137 141 148 159 140 157 161 141 173 116 124 124 174 156 194 166 201
277 269 226 238 239 234 224 232 217 220 219 244 249 251 258 254 256 249 282 236 227 132 109 124 134 135 139 142 149 154 151 155 163 153 161 145 144 172 174 124 86 130 185 128
310 276 260 224 241 238 231 226 235 240 235 249 252 237 241 244 247 241 205 201 143 127 125 133 133 141 140 147 156 149 155 160 162 158 159 154 150 124 111 101 108 133 139 164
279 286 280 285 223 244 242 220 225 225 233 238 236 251 274 203 227 215 209 168 137 128 137 141 144 143 143 150 145 154 156 158 158 158 161 156 152 110 131 124 123 138 157 133
270 261 271 286 264 216 230 235 218 235 227 236 245 267 208 175 147 152 173 163 139 143 148 143 147 144 146 147 151 152 158 161 160 167 163 137 137 150 122 147 124 128 172 103
291 274 258 266 271 217 231 223 228 220 220 233 244 248 95 106 141 166 168 148 138 147 146 151 146 151 149 154 151 161 158 160 167 166 146 148 144 129 157 153 134 147 177 193
343 246 260 258 267 258 227 221 232 236 237 219 234 245 166 173 210 178 129 132 142 150 149 145 152 152 155 153 159 159 167 159 163 184 142 146 127 138 157 157 187 182 171 187
324 260 259 251 303 340 273 212 229 227 212 226 226 202 166 176 146 129 124 135 146 146 149 150 156 154 159 156 163 160 171 157 173 184 131 126 128 154 156 158 187 258 176 155
211 272 289 258 258 306 302 282 223 223 204 221 233 170 210 176 161 124 130 142 144 148 156 154 157 157 159 161 157 163 167 162 175 137 124 130 141 160 145 147 163 106 94 61
225 279 302 281 222 274 288 272 262 219 201 220 238 163 130 100 106 125 146 143 153 154 159 156 162 160 161 163 161 163 162 157 170 128 140 146 164 159 144 153 152 153 131 125
282 302 318 251 204 315 278 234 237 211 205 212 226 168 129 143 122 152 156 151 158 157 154 163 164 162 159 163 163 163 155 155 167 131 148 159 146 145 157 164 160 157 153 133
263 286 276 2 62 273 235 240 250 206 198 209 168 163 142 119 93 58 47 31 96 158 161 159 161 158 155 162 154 164 154 162 172 153 154 165 156 149 150 164 167 166 167 161
230 258 276 208 208 289 328 2 340 249 94 17 42 78 66 87 93 55 24 18 4 349 157 157 158 154 154 161 153 166 161 171 174 165 152 160 129 135 133 133 125 141 144 141
180 224 232 62 251 230 19 350 320 300 120 12 43 53 50 34 121 55 360 348 348 336 223 152 154 149 154 161 156 167 165 181 178 167 163 157 140 148 157 134 138 150 147 139
157 238 263 274 254 295 338 332 310 2 89 42 50 46 40 49 50 2 344 334 329 320 302 146 152 156 158 158 160 175 168 187 182 167 160 139 131 143 131 134 144 132 121 118
340 347 332 238 232 336 327 346 55 321 353 48 53 47 47 32 33 24 350 317 318 315 300 152 154 154 158 162 167 183 169 188 183 165 159 135 131 141 132 139 146 122 130 122
14 21 342 14 32 294 306 18 19 1 31 39 36 33 33 32 23 8 335 311 291 275 267 188 159 155 162 168 174 185 168 188 182 165 149 138 155 137 138 150 150 135 146 141
347 6 21 40 355 327 325 9 20 19 9 5 21 25 26 15 12 3 337 324 282 250 237 262 160 160 168 173 177 189 168 191 179 163 154 151 166 146 148 158 183 158 172 170
8 359 349 4 2 354 359 340 338 8 3 358 1 4 26 3 8 356 352 350 337 270 223 245 183 167 170 176 179 187 175 190 175 162 162 156 165 153 155 167 194 176 87 145
8 14 10 36 297 311 321 305 317 348 346 351 346 347 358 21 3 0 355 348 349 328 278 232 245 168 169 177 181 188 180 188 168 163 167 170 176 170 169 166 143 59 107 101